User: anonymous   Login
Location: Unspecified
(0.0000°N, 0.0000°E)
Time: 03:00:25
(UTC+00:00)
Language:

SICRAL 1B - Orbit

View from above orbital plane
View from above orbital plane
View from above satellite
View from above satellite

Ground track
Ground track

The orbit data is extracted from the following two-line orbital elements,

1 34810U 09020A   17316.07668087 0.00000000  00000-0  00000-0 0    00
2 34810   0.0685  90.8120 0003381 124.1700 235.8760  1.00270000    08
Epoch (UTC): 12 November 2017 01:50:25
Eccentricity: 0.0003381
inclination: 0.0685°
perigee height: 35772 km
apogee height: 35801 km
right ascension of ascending node: 90.8120°
argument of perigee: 124.1700°
revolutions per day: 1.00270000
mean anomaly at epoch: 235.8760°
orbit number at epoch: 0

The dashed part of the orbit path shows where the satellite is in the earth's shadow,  

DLR